TimeMST,TemperatureF,Dew PointF,Humidity,Sea Level PressureIn,VisibilityMPH,Wind Direction,Wind SpeedMPH,Gust SpeedMPH,PrecipitationIn,Events,Conditions,WindDirDegrees,DateUTC
12:53 AM,10.9,3.9,73,30.30,10.0,West,11.5,-,N/A,,Clear,270,2012-12-09 07:53:00
1:53 AM,10.0,3.9,76,30.32,10.0,WNW,8.1,-,N/A,,Clear,290,2012-12-09 08:53:00
2:53 AM,8.1,3.0,80,30.37,10.0,West,6.9,-,N/A,,Clear,280,2012-12-09 09:53:00
3:53 AM,8.1,3.0,80,30.39,10.0,NW,4.6,-,N/A,,Clear,310,2012-12-09 10:53:00
4:53 AM,7.0,1.9,80,30.41,10.0,Calm,Calm,-,N/A,,Clear,0,2012-12-09 11:53:00
5:53 AM,6.1,1.9,83,30.45,10.0,Calm,Calm,-,N/A,,Clear,0,2012-12-09 12:53:00
6:53 AM,5.0,1.0,84,30.48,10.0,ESE,3.5,-,N/A,,Clear,120,2012-12-09 13:53:00
7:53 AM,3.9,1.0,88,30.51,10.0,Calm,Calm,-,N/A,,Clear,0,2012-12-09 14:53:00
8:53 AM,7.0,3.0,84,30.52,10.0,Calm,Calm,-,N/A,,Clear,0,2012-12-09 15:53:00
9:53 AM,10.0,5.0,80,30.53,10.0,SE,3.5,-,N/A,,Clear,130,2012-12-09 16:53:00
10:53 AM,14.0,6.1,71,30.51,10.0,SE,5.8,-,N/A,,Clear,140,2012-12-09 17:53:00
11:53 AM,16.0,6.1,65,30.47,10.0,South,8.1,-,N/A,,Clear,170,2012-12-09 18:53:00
12:53 PM,19.0,6.1,57,30.45,10.0,SSE,8.1,-,N/A,,Clear,160,2012-12-09 19:53:00
1:53 PM,19.9,7.0,57,30.40,10.0,ESE,10.4,-,N/A,,Clear,120,2012-12-09 20:53:00
2:53 PM,19.0,5.0,54,30.38,10.0,SE,11.5,-,N/A,,Clear,140,2012-12-09 21:53:00
3:47 PM,-9999,-9999,N/A,29.96,20.0,South,9.2,-,N/A,,Scattered Clouds,190,2012-12-09 22:47:00
3:53 PM,19.0,6.1,57,30.37,10.0,SSE,11.5,-,N/A,,Clear,150,2012-12-09 22:53:00
4:53 PM,17.1,6.1,62,30.35,10.0,SE,8.1,-,N/A,,Clear,140,2012-12-09 23:53:00
5:53 PM,15.1,6.1,68,30.31,10.0,East,6.9,-,N/A,,Clear,100,2012-12-10 00:53:00
6:53 PM,14.0,6.1,71,30.26,10.0,SE,6.9,-,N/A,,Clear,140,2012-12-10 01:53:00
7:53 PM,16.0,6.1,65,30.25,10.0,ESE,5.8,-,N/A,,Overcast,110,2012-12-10 02:53:00
8:53 PM,17.1,7.0,65,30.20,10.0,East,5.8,-,N/A,,Overcast,90,2012-12-10 03:53:00
9:53 PM,18.0,7.0,62,30.17,10.0,South,4.6,-,N/A,,Overcast,190,2012-12-10 04:53:00
10:53 PM,17.1,8.1,68,30.16,10.0,Calm,Calm,-,N/A,,Overcast,0,2012-12-10 05:53:00
11:53 PM,17.1,8.1,68,30.14,10.0,SSE,4.6,-,N/A,,Overcast,160,2012-12-10 06:53:00